Location: Hokitika
(42.7170°S, 170.9670°E)
Time: 19:07:25
(UTC+13:00)

Cosmos 968 Rocket - Pass Details

Date: 24 January 2019
Orbit: 742 x 770 km, 74.0° (Epoch: 16 February)

Event Time Altitude Azimuth Distance (km) Brightness Sun altitude
Exits shadow 23:08:47 33° 45° (NE) 1,269 4.1 -18.0°
Maximum altitude 23:10:07 39° 78° (ENE) 1,144 4.0 -18.2°
Drops below altitude 10° 23:14:59 10° 145° (SE) 2,326 6.2 -18.7°
Sets 23:17:31 0° 152° (SSE) 3,265 7.1 -19.0°
